[[{"header":{"parameterUnit":"m.s-1","parameterCategory":1,"la1":30.2991,"la2":30.254,"lo1":-89.0895,"lo2":-89.0444,"dy":0.0017,"dx":0.0017,"nx":28,"ny":28,"refTime":"2024-12-18T09:00:00:Z","depth":0,"parameterNumber":2,"parameterNumberName":"U-component_of_WINDS"},"data":[0,0,0,0,0,0,0,0,0,0,0,0,0,0,0,0,0,0,0,0,0,0,0,0,0,0,0,0,0,0,0,0,0,0,0,0,0,0,0,0,0,0,0,0,0,0,0,0,0,0,0,0,0,0,0,0,0,0,0.9248,0.9247,0,0.9167,0.9166,0.9165,0.9109,0.9108,0.9108,0.9107,0.9027,0.9025,0.9023,0,0,0,0,0,0,0,0,0,0,0,0,0,0.9356,0.9354,0.9248,0.9247,0.9246,0.9167,0.9166,0.9165,0.9109,0.9108,0.9108,0.9107,0.9027,0.9025,0.9023,0,0,0,0,0,0,0,0,0,0,0,0,0,0.9296,0.9354,0.9248,0.9208,0.9204,0.9168,0.9166,0.9165,0.9109,0.9108,0.9107,0.9107,0.9028,0.9025,0.9023,0.902,0,0,0.9015,0.9014,0,0,0,0,0,0,0,0,0.9299,0.9292,0.9215,0.9211,0.9206,0.9147,0.9175,0.9116,0.9109,0.9145,0.9107,0.9107,0.9067,0.9062,0.9048,0.9016,0.9013,0.9015,0.9013,0.9012,0.9011,0,0,0,0,0,0,0,0.9303,0.9295,0.9216,0.9214,0.9209,0.9195,0.9186,0.9163,0.9111,0.9142,0.9138,0.9129,0.9065,0.9051,0.9046,0.9012,0.9015,0.9012,0.9011,0.901,0.8975,0.8975,0,0,0,0,0,0,0.9314,0.9299,0.9219,0.9214,0.9252,0.9194,0.9183,0.9167,0.9111,0.9102,0.9129,0.9126,0.9055,0.9049,0.9043,0.9036,0.9012,0.901,0.9008,0.8974,0.8975,0.8975,0,0,0,0,0,0,0.9316,0.9307,0.9222,0.9255,0.9243,0.9193,0.9175,0.9166,0.9151,0.9102,0.9092,0.9124,0.9055,0.9046,0.9026,0.9032,0.9008,0.9006,0.8973,0.8974,0.8975,0.9023,0,0,0,0,0,0,0.9319,0.9308,0.9306,0.9255,0.9242,0.9206,0.9175,0.9165,0.9147,0.9142,0.9094,0.9086,0.9053,0.903,0.9024,0.9028,0.9004,0.8973,0.8974,0.8975,0.902,0.9025,0.9029,0,0,0,0,0,0.9323,0.9323,0.9306,0.9297,0.9238,0.9207,0.9199,0.9161,0.9147,0.9145,0.9113,0.9087,0.9033,0.9029,0.9021,0.9025,0.8972,0.8973,0.8975,0.9018,0.9024,0.9029,0,0,0,0,0,0,0.9376,0.9316,0.9296,0.9279,0.9249,0.9197,0.9193,0.9168,0.9141,0.9138,0.9093,0.9083,0.9067,0.9044,0.9041,0.902,0.8999,0.8999,0.9035,0.904,0.9045,0.9051,0.9002,0,0,0,0,0,0.9386,0.9365,0.9313,0.9304,0.9289,0.9244,0.9229,0.9203,0.9169,0.9156,0.9123,0.9092,0.9068,0.9053,0.9028,0.9017,0.9006,0.9016,0.902,0.9024,0.9025,0.9018,0.9021,0.898,0.898,0.898,0,0,0.9406,0.937,0.936,0.9313,0.9286,0.9266,0.9233,0.9214,0.9199,0.9153,0.9132,0.9107,0.9069,0.9054,0.9045,0.9034,0.9034,0.9026,0.903,0.9028,0.9019,0.9023,0.9027,0.8981,0.8981,0.8981,0,0,0.9432,0.9402,0.9391,0.9364,0.9324,0.9294,0.9291,0.9244,0.9225,0.9203,0.9168,0.9151,0.911,0.9085,0.9067,0.9084,0.9059,0.9077,0.91,0.9094,0.9097,0.91,0.9106,0.9109,0.9078,0.9078,0.9078,0,0.9461,0.9429,0.9388,0.937,0.9351,0.9309,0.9297,0.9274,0.9228,0.9216,0.9204,0.9152,0.9124,0.9102,0.9106,0.9093,0.9089,0.9082,0.91,0.9102,0.9104,0.911,0.9112,0.908,0.908,0.908,0.908,0,0.9468,0.9446,0.9442,0.9398,0.9378,0.9364,0.9322,0.9307,0.9283,0.9254,0.9233,0.9198,0.9165,0.9158,0.9134,0.9133,0.9127,0.9108,0.9087,0.9111,0.9116,0.9117,0.9084,0.9083,0.9082,0.9082,0,0,0.9524,0.9458,0.9457,0.9436,0.9389,0.9372,0.9356,0.9323,0.9312,0.9282,0.9267,0.9234,0.9216,0.9196,0.9169,0.9164,0.918,0.9145,0.9143,0.9153,0.9177,0.9192,0.9195,0.9163,0.9163,0.9164,0.918,0,0.9543,0.9511,0.9474,0.9455,0.9435,0.9395,0.9381,0.9351,0.9324,0.9304,0.9275,0.9252,0.923,0.9217,0.921,0.9179,0.9184,0.9178,0.915,0.915,0.916,0.9197,0.9212,0.9229,0.9182,0.9182,0.9182,0,0.956,0.9531,0.951,0.9464,0.9454,0.9443,0.941,0.9391,0.9356,0.9337,0.9315,0.9286,0.9268,0.925,0.9225,0.9221,0.9208,0.9192,0.9191,0.9187,0.9167,0.9194,0.9234,0.9237,0.9184,0.9184,0.9184,0,0.9603,0.9559,0.9541,0.9524,0.9471,0.9464,0.9441,0.9406,0.9389,0.9361,0.9349,0.932,0.9304,0.9283,0.9247,0.9237,0.9226,0.9204,0.9211,0.9212,0.921,0.921,0.9248,0.9202,0.9202,0.9202,0.9202,0,0.9627,0.9616,0.9559,0.9548,0.9535,0.9493,0.9481,0.9455,0.9424,0.9408,0.9372,0.9358,0.9311,0.9292,0.9264,0.9248,0.9241,0.9226,0.9219,0.9229,0.9231,0.9219,0.9217,0.9202,0.9202,0.9202,0.9202,0,0.9673,0.9634,0.9612,0.9563,0.9551,0.9543,0.9501,0.949,0.9461,0.9441,0.9434,0.939,0.9365,0.9327,0.9292,0.9273,0.9262,0.925,0.9273,0.9269,0.9277,0.9277,0.9309,0.9311,0.9263,0.9264,0.9264,0,0.9691,0.9681,0.9631,0.9617,0.9596,0.9574,0.9556,0.9515,0.9499,0.9459,0.9452,0.9424,0.94,0.9362,0.9328,0.93,0.9288,0.9301,0.9283,0.9294,0.9288,0.9289,0.9288,0.9305,0.9306,0.9306,0.9307,0,0.9726,0.9708,0.9683,0.9653,0.9632,0.9606,0.9578,0.9569,0.9523,0.9506,0.948,0.9461,0.9424,0.9398,0.9366,0.9343,0.9318,0.9312,0.9312,0.9323,0.9337,0.9329,0.9284,0.9312,0.9311,0.9311,0.9311,0.931,0.9758,0.9748,0.9711,0.9686,0.966,0.9635,0.9622,0.9592,0.9569,0.9535,0.9513,0.9488,0.9455,0.9409,0.9388,0.9369,0.9358,0.9358,0.9357,0.9358,0.9362,0.934,0.9363,0.9363,0.9362,0.9362,0.9362,0,0.9792,0.9767,0.9743,0.9705,0.9685,0.9662,0.963,0.9615,0.9594,0.9564,0.9541,0.9512,0.9486,0.9449,0.9421,0.9412,0.94,0.9406,0.9407,0.9402,0.9373,0.9376,0.9417,0.9417,0.9417,0.9417,0.9417,0.9417,0.9808,0.9789,0.9766,0.9735,0.971,0.9685,0.9669,0.9646,0.9622,0.959,0.9568,0.9544,0.9512,0.9481,0.9457,0.9447,0.9438,0.9448,0.9435,0.9409,0.9404,0.9399,0.9402,0.9447,0.9447,0.9465,0.9465,0.9465]},{"header":{"parameterUnit":"m.s-1","parameterCategory":1,"la1":30.2991,"la2":30.254,"lo1":-89.0895,"lo2":-89.0444,"dy":0.0017,"dx":0.0017,"nx":28,"ny":28,"refTime":"2024-12-18T09:00:00:Z","depth":0,"parameterNumber":3,"parameterNumberName":"V-component_of_WINDS"},"data":[0,0,0,0,0,0,0,0,0,0,0,0,0,0,0,0,0,0,0,0,0,0,0,0,0,0,0,0,0,0,0,0,0,0,0,0,0,0,0,0,0,0,0,0,0,0,0,0,0,0,0,0,0,0,0,0,0,0,-5.0841,-5.0842,0,-5.1005,-5.1006,-5.1008,-5.1016,-5.1014,-5.1012,-5.101,-5.1174,-5.118,-5.1186,0,0,0,0,0,0,0,0,0,0,0,0,0,-5.0532,-5.0537,-5.084,-5.0842,-5.0845,-5.1004,-5.1006,-5.1009,-5.1016,-5.1014,-5.1012,-5.101,-5.1172,-5.118,-5.1187,0,0,0,0,0,0,0,0,0,0,0,0,0,-5.0678,-5.0539,-5.084,-5.0868,-5.0872,-5.1004,-5.1007,-5.1009,-5.1017,-5.1014,-5.1011,-5.1008,-5.117,-5.1179,-5.1188,-5.1302,0,0,-5.1216,-5.122,0,0,0,0,0,0,0,0,-5.0669,-5.0689,-5.0862,-5.0866,-5.0871,-5.0987,-5.0958,-5.1107,-5.1018,-5.0962,-5.101,-5.1007,-5.1114,-5.1128,-5.1165,-5.131,-5.1317,-5.1217,-5.1223,-5.1227,-5.1229,0,0,0,0,0,0,0,-5.0659,-5.0682,-5.0905,-5.0864,-5.087,-5.0871,-5.0889,-5.0986,-5.1052,-5.0966,-5.0967,-5.0987,-5.1116,-5.1156,-5.1169,-5.1319,-5.1217,-5.1225,-5.1231,-5.1234,-5.1568,-5.1571,0,0,0,0,0,0,-5.0644,-5.0674,-5.09,-5.091,-5.0761,-5.0879,-5.0899,-5.0953,-5.1051,-5.1063,-5.0989,-5.0987,-5.1141,-5.1158,-5.1174,-5.1316,-5.1226,-5.1235,-5.124,-5.1565,-5.1569,-5.1573,0,0,0,0,0,0,-5.0638,-5.0664,-5.0893,-5.0792,-5.0822,-5.0888,-5.0948,-5.0957,-5.0997,-5.1068,-5.1079,-5.1018,-5.114,-5.1161,-5.1271,-5.1321,-5.1239,-5.1248,-5.1561,-5.1566,-5.1571,-5.1598,0,0,0,0,0,0,-5.0629,-5.0662,-5.0706,-5.0793,-5.0827,-5.0988,-5.0951,-5.0963,-5.1013,-5.1012,-5.1098,-5.1109,-5.1139,-5.1257,-5.128,-5.1333,-5.1255,-5.1557,-5.1563,-5.1569,-5.1593,-5.1604,-5.1613,0,0,0,0,0,-5.0618,-5.0706,-5.0709,-5.0736,-5.0884,-5.0991,-5.101,-5.1044,-5.1017,-5.1063,-5.1109,-5.1107,-5.1312,-5.1268,-5.1294,-5.135,-5.1554,-5.1561,-5.1569,-5.1589,-5.1602,-5.1613,0,0,0,0,0,0,-5.0622,-5.0718,-5.0722,-5.0841,-5.0908,-5.0992,-5.105,-5.1056,-5.113,-5.1125,-5.1163,-5.1182,-5.1291,-5.1332,-5.1281,-5.1467,-5.143,-5.1443,-5.1436,-5.1449,-5.1459,-5.1446,-5.1262,0,0,0,0,0,-5.0637,-5.0717,-5.0796,-5.0894,-5.0928,-5.0983,-5.1031,-5.1051,-5.1121,-5.1149,-5.1203,-5.127,-5.135,-5.1402,-5.1479,-5.1599,-5.1619,-5.1651,-5.166,-5.1668,-5.1679,-5.1747,-5.1762,-5.1597,-5.1597,-5.1597,0,0,-5.0668,-5.0731,-5.0779,-5.0897,-5.0951,-5.1032,-5.1007,-5.1093,-5.1154,-5.1162,-5.127,-5.1312,-5.1389,-5.1505,-5.1559,-5.1542,-5.1729,-5.1678,-5.1683,-5.169,-5.1756,-5.1771,-5.1785,-5.1602,-5.1602,-5.1601,0,0,-5.0767,-5.0823,-5.0911,-5.0967,-5.105,-5.1086,-5.1108,-5.1192,-5.1221,-5.133,-5.1338,-5.141,-5.1546,-5.1602,-5.1648,-5.1771,-5.1772,-5.1795,-5.1845,-5.1911,-5.1924,-5.1935,-5.198,-5.1995,-5.1805,-5.1805,-5.1805,0,-5.0795,-5.0919,-5.0955,-5.1043,-5.1095,-5.1108,-5.1198,-5.1249,-5.1353,-5.1388,-5.1369,-5.1542,-5.1595,-5.1724,-5.1755,-5.1791,-5.1817,-5.1785,-5.1919,-5.1931,-5.1943,-5.1985,-5.2002,-5.1807,-5.1807,-5.1807,-5.1807,0,-5.095,-5.1036,-5.1097,-5.1199,-5.1258,-5.1346,-5.1395,-5.145,-5.1466,-5.1505,-5.1616,-5.1681,-5.1772,-5.1804,-5.1819,-5.1937,-5.1924,-5.1912,-5.1875,-5.196,-5.2001,-5.2017,-5.1811,-5.181,-5.1809,-5.1809,0,0,-5.1055,-5.1178,-5.1199,-5.1246,-5.134,-5.1407,-5.1496,-5.1587,-5.1634,-5.1705,-5.1781,-5.1898,-5.1887,-5.1939,-5.1961,-5.2019,-5.2113,-5.2,-5.2002,-5.2019,-5.2247,-5.2256,-5.2275,-5.2115,-5.2118,-5.2121,-5.2241,0,-5.1164,-5.1324,-5.136,-5.1498,-5.1578,-5.1593,-5.167,-5.1736,-5.1775,-5.1848,-5.1891,-5.1973,-5.1953,-5.1985,-5.2043,-5.2089,-5.216,-5.2081,-5.2185,-5.2189,-5.2165,-5.2296,-5.2305,-5.2415,-5.2257,-5.226,-5.2262,0,-5.1313,-5.1391,-5.1536,-5.1621,-5.1656,-5.1726,-5.1813,-5.1883,-5.1958,-5.1982,-5.2042,-5.2059,-5.2152,-5.2112,-5.224,-5.2186,-5.2231,-5.2261,-5.2266,-5.2276,-5.223,-5.231,-5.2451,-5.2468,-5.2287,-5.2285,-5.2283,0,-5.1376,-5.1516,-5.1622,-5.1662,-5.1763,-5.1812,-5.1856,-5.1929,-5.1982,-5.2058,-5.2093,-5.2178,-5.2225,-5.229,-5.2329,-5.2296,-5.2455,-5.2418,-5.2478,-5.2477,-5.251,-5.2507,-5.266,-5.2539,-5.2539,-5.2538,-5.2538,0,-5.1494,-5.1583,-5.1651,-5.1716,-5.1817,-5.1857,-5.1955,-5.1999,-5.2064,-5.2138,-5.2155,-5.2224,-5.2271,-5.2347,-5.2378,-5.248,-5.2501,-5.2523,-5.253,-5.2521,-5.2518,-5.2551,-5.2544,-5.2543,-5.2542,-5.2541,-5.254,0,-5.158,-5.163,-5.1746,-5.1834,-5.1858,-5.1928,-5.2003,-5.2067,-5.2107,-5.22,-5.2224,-5.2287,-5.2376,-5.2422,-5.2533,-5.2554,-5.267,-5.2672,-5.2645,-5.2648,-5.2705,-5.2699,-5.2884,-5.2911,-5.2772,-5.2773,-5.2774,0,-5.1652,-5.1722,-5.1817,-5.1869,-5.1915,-5.1997,-5.2052,-5.2095,-5.2152,-5.2244,-5.2297,-5.2388,-5.2463,-5.2605,-5.266,-5.2746,-5.275,-5.2809,-5.2763,-5.2753,-5.2752,-5.2747,-5.2755,-5.2817,-5.2818,-5.2819,-5.282,0,-5.1776,-5.1798,-5.1877,-5.1966,-5.2031,-5.2103,-5.2173,-5.2214,-5.2268,-5.2331,-5.2424,-5.2482,-5.2598,-5.2688,-5.2778,-5.2823,-5.2831,-5.2835,-5.2853,-5.2845,-5.2827,-5.2838,-5.2667,-5.283,-5.2829,-5.2828,-5.2828,-5.2827,-5.1858,-5.192,-5.1998,-5.2086,-5.2144,-5.221,-5.2275,-5.2325,-5.2403,-5.2501,-5.2522,-5.2621,-5.2695,-5.2817,-5.2865,-5.2943,-5.293,-5.2956,-5.2963,-5.2969,-5.2972,-5.2815,-5.2959,-5.2959,-5.2959,-5.2958,-5.2958,0,-5.1982,-5.2034,-5.2115,-5.2214,-5.2283,-5.2287,-5.2366,-5.2423,-5.2511,-5.258,-5.2655,-5.2762,-5.285,-5.2913,-5.3003,-5.3053,-5.3059,-5.3075,-5.3072,-5.3082,-5.2978,-5.2953,-5.3069,-5.3069,-5.3069,-5.3069,-5.3069,-5.3068,-5.2055,-5.2162,-5.2193,-5.2329,-5.238,-5.2478,-5.2523,-5.2584,-5.264,-5.276,-5.2834,-5.2875,-5.2942,-5.3037,-5.3118,-5.3135,-5.3167,-5.3183,-5.3199,-5.3101,-5.3089,-5.3078,-5.3055,-5.319,-5.319,-5.3297,-5.3298,-5.3298]}]]